period_start,C,m1,H,J0,J1,J2,J3,J4,J5,JA,JB,JC,JD,JJ,JK,JN,#
2013-12-24 00:00:22,0.14,5.04,0.00,26.34,27.67,30.34,6.13,30.96,1024.92,2036.38,1977.56,2157.05,2350.97,350.88,323.78,26.22,0000 0000 0000 0000 000000
2013-12-24 00:01:22,0.18,5.04,0.00,26.36,27.67,30.33,6.08,30.96,1024.92,2036.29,1977.25,2157.02,2350.53,351.13,323.99,26.23,0000 0000 0000 0000 000000
2013-12-24 00:02:23,0.11,5.04,0.00,26.38,27.67,30.30,5.96,30.67,1024.92,2036.25,1977.09,2156.91,2350.21,350.22,323.13,26.23,0000 0000 0000 0000 000000
2013-12-24 00:03:23,0.12,5.04,0.00,26.40,27.67,30.29,5.85,30.75,1024.92,2036.14,1977.03,2156.52,2350.08,350.46,323.33,26.24,0000 0000 0000 0000 000000
2013-12-24 00:04:23,0.10,5.04,0.00,26.41,27.67,30.28,5.92,30.58,1024.92,2036.16,1977.00,2156.24,2350.01,350.02,322.91,26.24,0000 0000 0000 0000 000000
2013-12-24 00:05:23,0.14,5.05,0.00,26.36,27.67,30.33,5.95,30.54,1024.92,2036.22,1976.79,2156.08,2349.96,349.92,322.87,26.25,0000 0000 0000 0000 000000
2013-12-24 00:06:24,0.23,5.05,0.00,26.38,27.67,30.32,5.87,30.71,1024.92,2036.17,1976.35,2156.02,2349.60,350.23,323.14,26.26,0000 0000 0000 0000 000000
2013-12-24 00:07:24,0.19,5.05,0.00,26.40,27.67,30.27,6.08,31.21,1024.92,2036.15,1976.13,2155.97,2349.23,350.98,323.82,26.26,0000 0000 0000 0000 000000
2013-12-24 00:08:24,0.14,5.05,0.00,26.43,27.67,30.25,5.79,30.75,1024.90,2036.07,1975.97,2155.61,2349.08,349.74,322.63,26.27,0000 0000 0000 0000 000000
2013-12-24 00:09:25,0.16,5.05,0.00,26.41,27.67,30.27,5.94,30.92,1024.85,2036.05,1975.59,2155.26,2349.00,350.30,323.16,26.27,0000 0000 0000 0000 000000
2013-12-24 00:10:25,0.25,5.05,0.00,26.44,27.67,30.31,5.90,30.88,1024.83,2036.06,1975.23,2155.09,2348.92,350.41,323.41,26.28,0000 0000 0000 0000 000000
2013-12-24 00:11:25,0.22,5.05,0.00,26.43,27.67,30.31,5.79,30.71,1024.86,2036.07,1975.08,2155.03,2348.58,349.61,322.08,26.29,0000 0000 0000 0000 000000
2013-12-24 00:12:25,0.14,5.05,0.00,26.42,27.67,30.28,5.79,30.96,1024.80,2036.08,1974.96,2155.01,2348.22,349.55,322.24,26.29,0000 0000 0000 0000 000000
2013-12-24 00:13:26,0.23,5.05,0.00,26.46,27.67,30.29,5.90,30.96,1024.72,2036.15,1974.48,2154.75,2348.08,349.15,322.98,26.30,0000 0000 0000 0000 000000
2013-12-24 00:14:26,0.31,5.06,0.00,26.44,27.67,30.29,6.06,31.00,1024.78,2036.13,1974.17,2154.34,2348.02,350.13,322.93,26.30,0000 0000 0000 0000 000000
2013-12-24 00:15:26,0.23,5.06,0.00,26.39,27.67,30.29,6.00,30.92,1024.83,2036.15,1974.02,2154.12,2347.98,350.13,323.00,26.31,0000 0000 0000 0000 000000
2013-12-24 00:16:27,0.14,5.06,0.00,26.33,27.67,30.29,6.16,31.17,1024.79,2036.10,1973.78,2154.04,2347.67,350.43,323.18,26.32,0000 0000 0000 0000 000000
2013-12-24 00:17:27,0.19,5.06,0.00,26.30,27.67,30.31,5.88,30.88,1024.75,2036.10,1973.32,2153.99,2347.29,349.63,322.74,26.32,0000 0000 0000 0000 000000
2013-12-24 00:18:27,0.21,5.06,0.00,26.31,27.67,30.31,6.00,31.00,1024.74,2036.09,1973.12,2153.74,2347.11,350.72,323.13,26.33,0000 0000 0000 0000 000000
2013-12-24 00:19:28,0.20,5.06,0.00,26.31,27.67,30.32,5.99,30.96,1024.74,2036.10,1973.03,2153.39,2347.02,350.19,323.12,26.33,0000 0000 0000 0000 000000
2013-12-24 00:20:28,0.19,5.06,0.00,26.28,27.67,30.34,5.94,30.96,1024.68,2036.08,1972.83,2153.15,2346.98,349.29,322.31,26.34,0000 0000 0000 0000 000000
2013-12-24 00:21:28,0.16,5.07,0.00,26.31,27.67,30.27,5.91,30.75,1024.66,2036.08,1972.51,2153.05,2346.80,350.40,323.29,26.34,0000 0000 0000 0000 000000
2013-12-24 00:22:28,0.20,5.07,0.00,26.34,27.67,30.28,5.94,30.92,1024.61,2036.12,1972.22,2153.02,2346.38,349.14,322.08,26.35,0000 0000 0000 0000 000000
2013-12-24 00:23:29,0.20,5.07,0.00,26.40,27.67,30.27,5.77,31.00,1024.67,2036.13,1972.07,2152.96,2346.15,349.78,322.62,26.36,0000 0000 0000 0000 000000
2013-12-24 00:24:29,0.16,5.07,0.00,26.40,27.67,30.30,5.98,30.75,1024.71,2036.18,1971.92,2152.70,2346.05,350.78,323.72,26.36,0000 0000 0000 0000 000000
2013-12-24 00:25:29,0.26,5.07,0.00,26.36,27.67,30.33,5.88,31.00,1024.81,2036.19,1971.41,2152.32,2346.01,349.78,323.11,26.37,0000 0000 0000 0000 000000
2013-12-24 00:26:29,0.31,5.07,0.00,26.35,27.67,30.32,5.87,30.67,1024.79,2036.15,1971.15,2152.12,2345.73,350.12,323.03,26.37,0000 0000 0000 0000 000000
2013-12-24 00:27:30,0.18,5.07,0.00,26.32,27.67,30.32,5.78,31.17,1024.85,2036.17,1971.05,2152.04,2345.33,348.94,322.58,26.38,0000 0000 0000 0000 000000
2013-12-24 00:28:30,0.17,5.07,0.00,26.32,27.67,30.33,5.98,30.96,1024.81,2036.29,1970.88,2151.99,2345.12,350.46,323.39,26.39,0000 0000 0000 0000 000000
2013-12-24 00:29:30,0.24,5.07,0.00,26.25,27.67,30.36,5.82,31.00,1024.78,2036.26,1970.38,2151.74,2345.04,349.58,322.97,26.39,0000 0000 0000 0000 000000
2013-12-24 00:30:30,0.23,5.08,0.00,26.19,27.67,30.36,5.84,31.04,1024.79,2036.17,1970.14,2151.32,2344.97,350.13,323.21,26.40,0000 0000 0000 0000 000000
2013-12-24 00:31:31,0.19,5.08,0.00,26.21,27.67,30.36,5.84,30.96,1024.76,2036.16,1970.00,2151.11,2344.82,349.87,322.93,26.40,0000 0000 0000 0000 000000
2013-12-24 00:32:31,0.18,5.08,0.00,26.22,27.67,30.36,5.98,31.33,1024.69,2036.23,1969.66,2151.04,2344.43,350.88,323.45,26.41,0000 0000 0000 0000 000000
2013-12-24 00:33:31,0.26,5.08,0.00,26.19,27.67,30.33,6.02,31.38,1024.62,2036.25,1969.25,2150.99,2344.15,350.30,323.31,26.41,0000 0000 0000 0000 000000
2013-12-24 00:34:32,0.25,5.08,0.00,26.23,27.67,30.30,6.07,31.13,1024.76,2036.31,1969.09,2150.85,2344.05,350.71,323.69,26.42,0000 0000 0000 0000 000000
2013-12-24 00:35:32,0.16,5.08,0.00,26.28,27.67,30.31,6.02,31.04,1024.83,2036.24,1969.02,2150.49,2344.01,349.77,322.94,26.43,0000 0000 0000 0000 000000
2013-12-24 00:36:32,0.14,5.08,0.00,26.25,27.67,30.35,5.85,31.08,1024.77,2036.28,1968.99,2150.20,2343.87,349.42,322.49,26.43,0000 0000 0000 0000 000000
2013-12-24 00:37:32,0.21,5.09,0.00,26.36,27.67,30.32,5.93,31.04,1024.79,2036.40,1968.60,2150.08,2343.43,350.23,323.12,26.44,0000 0000 0000 0000 000000
2013-12-24 00:38:33,0.38,5.09,0.00,26.39,27.67,30.29,6.11,31.29,1024.79,2036.48,1968.23,2150.03,2343.16,349.84,322.74,26.44,0000 0000 0000 0000 000000
2013-12-24 00:39:33,0.28,5.09,0.00,26.42,27.67,30.26,6.15,31.17,1024.79,2036.43,1968.08,2150.01,2343.06,351.00,323.77,26.45,0000 0000 0000 0000 000000
2013-12-24 00:40:33,0.08,5.09,0.00,26.43,27.67,30.23,5.82,31.17,1024.76,2036.53,1968.02,2149.90,2343.02,349.42,322.30,26.46,0000 0000 0000 0000 000000
2013-12-24 00:41:33,0.11,5.09,0.00,26.40,27.67,30.26,6.11,31.38,1024.81,2036.48,1967.85,2149.50,2342.97,350.79,323.59,26.46,0000 0000 0000 0000 000000
2013-12-24 00:42:34,0.22,5.09,0.00,26.40,27.67,30.25,5.92,31.46,1024.85,2036.41,1967.37,2149.19,2342.57,348.99,322.38,26.47,0000 0000 0000 0000 000000
2013-12-24 00:43:34,0.25,5.09,0.00,26.38,27.67,30.20,5.84,31.21,1024.77,2036.31,1967.12,2149.07,2342.24,349.58,322.50,26.47,0000 0000 0000 0000 000000
2013-12-24 00:44:34,0.12,5.09,0.00,26.42,27.67,30.22,5.89,31.29,1024.73,2036.26,1966.95,2149.01,2342.08,350.06,322.87,26.48,0000 0000 0000 0000 000000
2013-12-24 00:45:35,0.09,5.09,0.00,26.41,27.67,30.22,6.06,31.29,1024.69,2036.34,1966.57,2148.90,2342.03,350.35,323.27,26.49,0000 0000 0000 0000 000000
2013-12-24 00:46:35,0.22,5.10,0.00,26.35,27.67,30.26,5.81,31.08,1024.75,2036.27,1966.22,2148.51,2341.97,349.71,322.81,26.49,0000 0000 0000 0000 000000
2013-12-24 00:47:35,0.30,5.10,0.00,26.36,27.67,30.29,5.88,31.00,1024.77,2036.48,1966.08,2148.23,2341.67,349.71,322.32,26.50,0000 0000 0000 0000 000000
2013-12-24 00:48:36,0.43,5.10,0.00,26.35,27.67,30.30,5.91,31.08,1024.76,2036.59,1965.98,2148.09,2341.27,349.67,322.13,26.50,0000 0000 0000 0000 000000
2013-12-24 00:49:36,0.22,5.10,0.00,26.37,27.67,30.26,5.92,31.25,1024.77,2036.41,1965.58,2148.03,2341.10,349.14,322.10,26.51,0000 0000 0000 0000 000000
2013-12-24 00:50:36,0.06,5.10,0.00,26.40,27.67,30.23,5.98,31.42,1024.74,2036.31,1965.21,2147.99,2341.03,350.31,323.14,26.51,0000 0000 0000 0000 000000
2013-12-24 00:51:36,0.05,5.10,0.00,26.46,27.67,30.28,5.91,30.92,1024.77,2036.31,1965.07,2147.82,2340.96,349.54,322.37,26.52,0000 0000 0000 0000 000000
2013-12-24 00:52:37,0.16,5.10,0.00,26.50,27.67,30.25,5.88,31.00,1024.73,2036.33,1965.00,2147.41,2340.69,348.88,322.20,26.53,0000 0000 0000 0000 000000
2013-12-24 00:53:37,0.26,5.10,0.00,26.44,27.67,30.25,6.01,31.00,1024.70,2036.32,1964.81,2147.15,2340.30,349.77,322.95,26.53,0000 0000 0000 0000 000000
2013-12-24 00:54:37,0.23,5.11,0.00,26.39,27.67,30.30,5.80,30.92,1024.68,2036.22,1964.36,2147.05,2340.11,349.40,322.29,26.54,0000 0000 0000 0000 000000
2013-12-24 00:55:37,0.12,5.11,0.00,26.34,27.67,30.28,6.10,31.17,1024.64,2036.17,1964.13,2147.00,2340.04,350.81,323.63,26.54,0000 0000 0000 0000 000000
2013-12-24 00:56:38,0.08,5.11,0.00,26.24,27.67,30.31,5.85,31.13,1024.70,2036.16,1964.04,2146.83,2339.98,349.38,322.42,26.55,0000 0000 0000 0000 000000
2013-12-24 00:57:38,0.10,5.11,0.00,26.22,27.67,30.36,5.94,31.04,1024.70,2036.13,1963.84,2146.48,2339.68,350.62,323.60,26.56,0000 0000 0000 0000 000000
2013-12-24 00:58:38,0.26,5.11,0.00,26.11,27.67,30.30,5.88,31.00,1024.76,2036.10,1963.36,2146.18,2339.27,349.66,322.85,26.56,0000 0000 0000 0000 000000
2013-12-24 00:59:38,0.32,5.11,0.00,26.06,27.67,30.36,5.84,31.13,1024.71,2036.16,1963.13,2146.06,2339.10,349.11,322.39,26.57,0000 0000 0000 0000 000000
2013-12-24 01:00:39,0.18,5.11,0.00,26.05,27.67,30.39,5.74,30.75,1024.67,2036.15,1963.05,2146.02,2339.03,349.51,322.41,26.57,0000 0000 0000 0000 000000
2013-12-24 01:01:39,0.05,5.11,0.00,26.11,27.67,30.42,5.97,30.92,1024.65,2036.11,1962.94,2145.97,2338.98,349.90,322.98,26.58,0000 0000 0000 0000 000000
2013-12-24 01:02:39,0.04,5.11,0.00,26.17,27.67,30.40,6.03,31.00,1024.70,2036.05,1962.55,2145.69,2338.68,350.90,323.92,26.58,0000 0000 0000 0000 000000
2013-12-24 01:03:39,0.26,5.11,0.00,26.25,27.67,30.34,5.92,30.71,1024.67,2036.06,1962.25,2145.31,2338.33,350.33,323.30,26.59,0000 0000 0000 0000 000000
2013-12-24 01:04:40,0.32,5.12,0.00,26.31,27.67,30.33,5.88,30.79,1024.70,2036.09,1962.09,2145.11,2338.12,349.77,323.44,26.60,0000 0000 0000 0000 000000
2013-12-24 01:05:40,0.19,5.12,0.00,26.36,27.67,30.29,5.93,31.00,1024.72,2036.07,1962.01,2145.04,2338.04,350.02,322.97,26.60,0000 0000 0000 0000 000000
2013-12-24 01:06:40,0.06,5.12,0.00,26.36,27.67,30.28,5.84,30.88,1024.75,2036.08,1961.83,2145.01,2338.00,349.85,322.19,26.61,0000 0000 0000 0000 000000
2013-12-24 01:07:40,0.10,5.12,0.00,26.39,27.67,30.26,5.85,31.17,1024.69,2036.07,1961.36,2145.00,2337.86,348.56,321.44,26.61,0000 0000 0000 0000 000000
2013-12-24 01:08:41,0.16,5.12,0.00,26.39,27.67,30.27,5.70,31.00,1024.69,2036.06,1961.14,2144.70,2337.45,350.35,323.17,26.62,0000 0000 0000 0000 000000
2013-12-24 01:09:41,0.28,5.12,0.00,26.40,27.67,30.26,5.94,31.13,1024.64,2036.09,1961.04,2144.30,2337.16,350.70,323.46,26.63,0000 0000 0000 0000 000000
2013-12-24 01:10:41,0.28,5.12,0.00,26.38,27.67,30.27,5.99,31.13,1024.65,2036.10,1960.98,2144.11,2337.05,350.62,323.42,26.63,0000 0000 0000 0000 000000
2013-12-24 01:11:41,0.14,5.12,0.00,26.36,27.67,30.28,5.85,30.75,1024.57,2036.09,1960.84,2144.04,2337.02,350.09,322.83,26.64,0000 0000 0000 0000 000000
2013-12-24 01:12:42,0.09,5.12,0.00,26.39,27.67,30.29,5.95,30.83,1024.50,2036.10,1960.37,2144.01,2336.90,349.84,322.64,26.64,0000 0000 0000 0000 000000
2013-12-24 01:13:42,0.19,5.13,0.00,26.39,27.67,30.24,5.77,30.92,1024.48,2036.10,1960.13,2143.96,2336.62,348.98,321.84,26.65,0000 0000 0000 0000 000000
2013-12-24 01:14:42,0.19,5.13,0.00,26.34,27.67,30.30,6.01,31.13,1024.52,2036.13,1960.04,2143.67,2336.28,350.52,323.32,26.66,0000 0000 0000 0000 000000
2013-12-24 01:15:43,0.22,5.13,0.00,26.31,27.67,30.32,5.89,30.88,1024.54,2036.09,1959.99,2143.28,2336.10,349.06,322.01,26.66,0000 0000 0000 0000 000000
2013-12-24 01:16:43,0.19,5.13,0.00,26.31,27.67,30.26,5.96,30.71,1024.52,2036.07,1959.64,2143.11,2336.03,349.62,322.53,26.67,0000 0000 0000 0000 000000
2013-12-24 01:17:43,0.20,5.13,0.00,26.30,27.67,30.29,5.98,31.04,1024.51,2036.09,1959.25,2143.04,2335.99,350.42,323.27,26.67,0000 0000 0000 0000 000000
2013-12-24 01:18:43,0.18,5.13,0.00,26.37,27.67,30.28,6.10,31.29,1024.56,2036.11,1959.06,2143.00,2335.67,350.69,323.46,26.68,0000 0000 0000 0000 000000
2013-12-24 01:19:44,0.16,5.13,0.00,26.37,27.67,30.25,5.82,31.00,1024.67,2036.08,1958.95,2142.82,2335.30,349.16,322.08,26.68,0000 0000 0000 0000 000000
2013-12-24 01:20:44,0.19,5.13,0.00,26.38,27.67,30.25,6.12,31.17,1024.61,2036.04,1958.52,2142.38,2335.12,349.82,322.49,26.69,0000 0000 0000 0000 000000
2013-12-24 01:21:44,0.30,5.14,0.00,26.41,27.67,30.23,5.96,31.33,1024.59,2036.03,1958.19,2142.15,2335.04,350.99,323.71,26.70,0000 0000 0000 0000 000000
2013-12-24 01:22:44,0.20,5.14,0.00,26.44,27.67,30.25,5.83,31.08,1024.58,2036.03,1958.06,2142.05,2334.97,349.48,322.28,26.70,0000 0000 0000 0000 000000
2013-12-24 01:23:45,0.09,5.14,0.00,26.44,27.67,30.22,5.92,30.67,1024.53,2036.08,1957.98,2142.01,2334.73,350.30,323.02,26.71,0000 0000 0000 0000 000000
2013-12-24 01:24:45,0.16,5.14,0.00,26.39,27.67,30.23,5.84,30.96,1024.49,2036.09,1957.59,2141.93,2334.29,350.38,322.62,26.71,0000 0000 0000 0000 000000
2013-12-24 01:25:45,0.32,5.14,0.00,26.33,27.67,30.30,6.13,31.33,1024.50,2036.12,1957.22,2141.57,2334.10,350.23,323.65,26.72,0000 0000 0000 0000 000000
2013-12-24 01:26:45,0.27,5.14,0.00,26.36,27.67,30.33,5.93,30.79,1024.48,2036.08,1957.08,2141.26,2334.03,350.03,322.91,26.73,0000 0000 0000 0000 000000
2013-12-24 01:27:45,0.17,5.14,0.00,26.32,27.67,30.36,5.90,30.96,1024.47,2036.11,1957.01,2141.10,2333.99,349.90,322.25,26.73,0000 0000 0000 0000 000000
2013-12-24 01:28:45,0.13,5.14,0.00,26.24,27.67,30.32,5.88,31.25,1024.48,2036.22,1956.88,2141.03,2333.95,350.23,323.15,26.74,0000 0000 0000 0000 000000
2013-12-24 01:29:46,0.18,5.14,0.00,26.24,27.67,30.31,6.02,31.38,1024.48,2036.24,1956.45,2141.00,2333.64,350.61,323.46,26.74,0000 0000 0000 0000 000000
2013-12-24 01:30:46,0.23,5.15,0.00,26.30,27.67,30.33,5.86,31.17,1024.46,2036.20,1956.17,2140.96,2333.25,349.52,322.41,26.75,0000 0000 0000 0000 000000
2013-12-24 01:31:46,0.15,5.15,0.00,26.31,27.67,30.30,5.98,30.75,1024.45,2036.29,1956.05,2140.75,2333.09,350.25,323.24,26.75,0000 0000 0000 0000 000000
2013-12-24 01:32:47,0.29,5.15,0.00,26.27,27.67,30.31,5.93,31.04,1024.46,2036.30,1955.98,2140.33,2333.03,350.18,322.97,26.76,0000 0000 0000 0000 000000
2013-12-24 01:33:47,0.25,5.15,0.00,26.28,27.67,30.28,5.96,30.96,1024.45,2036.23,1955.53,2140.12,2332.96,349.64,322.57,26.77,0000 0000 0000 0000 000000
2013-12-24 01:34:47,0.12,5.15,0.00,26.29,27.67,30.28,5.88,31.04,1024.44,2036.21,1955.20,2140.04,2332.67,350.52,323.05,26.77,0000 0000 0000 0000 000000
2013-12-24 01:35:47,0.19,5.15,0.00,26.30,27.67,30.33,5.99,30.88,1024.44,2036.23,1955.07,2140.00,2332.30,349.67,322.52,26.78,0000 0000 0000 0000 000000
2013-12-24 01:36:47,0.19,5.15,0.00,26.30,27.67,30.30,5.87,31.17,1024.43,2036.23,1955.00,2139.85,2332.11,350.44,323.26,26.78,0000 0000 0000 0000 000000
2013-12-24 01:37:47,0.10,5.15,0.00,26.32,27.67,30.28,5.84,31.04,1024.43,2036.13,1954.90,2139.47,2332.04,349.97,322.63,26.79,0000 0000 0000 0000 000000
2013-12-24 01:38:48,0.10,5.15,0.00,26.37,27.67,30.29,5.79,31.04,1024.43,2036.13,1954.55,2139.22,2331.99,348.61,321.50,26.80,0000 0000 0000 0000 000000
2013-12-24 01:39:48,0.23,5.16,0.00,26.36,27.67,30.29,5.98,31.17,1024.43,2036.11,1954.21,2139.08,2331.76,351.08,323.36,26.80,0000 0000 0000 0000 000000
2013-12-24 01:40:48,0.20,5.16,0.00,26.41,27.67,30.26,6.01,31.08,1024.43,2036.07,1954.07,2139.03,2331.33,350.44,323.47,26.81,0000 0000 0000 0000 000000
2013-12-24 01:41:48,0.11,5.16,0.00,26.47,27.68,30.26,6.05,31.13,1024.44,2036.07,1954.01,2138.98,2331.12,349.99,322.90,26.81,0000 0000 0000 0000 000000
2013-12-24 01:42:49,0.09,5.16,0.00,26.44,27.67,30.24,5.92,31.58,1024.44,2036.08,1953.70,2138.65,2331.04,349.84,322.89,26.82,0000 0000 0000 0000 000000
2013-12-24 01:43:49,0.32,5.16,0.00,26.42,27.67,30.22,5.91,31.17,1024.43,2036.07,1953.26,2138.25,2330.97,349.78,322.67,26.83,0000 0000 0000 0000 000000
2013-12-24 01:44:49,0.26,5.16,0.00,26.47,27.67,30.26,5.82,31.38,1024.43,2036.06,1953.09,2138.10,2330.53,349.44,322.03,26.83,0000 0000 0000 0000 000000
2013-12-24 01:45:49,0.19,5.16,0.00,26.47,27.67,30.27,5.99,31.71,1024.44,2036.05,1953.01,2138.03,2330.20,350.80,322.99,26.84,0000 0000 0000 0000 000000
2013-12-24 01:46:50,0.13,5.16,0.00,26.41,27.67,30.23,6.01,31.13,1024.43,2036.04,1952.93,2138.01,2330.07,350.03,322.72,26.84,0000 0000 0000 0000 000000
2013-12-24 01:47:50,0.06,5.16,0.00,26.35,27.67,30.23,6.02,31.21,1024.43,2036.04,1952.53,2137.91,2330.02,349.09,321.96,26.85,0000 0000 0000 0000 000000
2013-12-24 01:48:50,0.18,5.16,0.00,26.38,27.67,30.33,6.08,31.17,1024.43,2036.05,1952.20,2137.52,2329.98,350.82,323.44,26.85,0000 0000 0000 0000 000000
2013-12-24 01:49:50,0.31,5.17,0.00,26.43,27.67,30.34,6.04,30.96,1024.43,2036.08,1952.07,2137.22,2329.75,350.51,323.18,26.86,0000 0000 0000 0000 000000
2013-12-24 01:50:51,0.24,5.17,0.00,26.36,27.67,30.27,5.73,30.96,1024.43,2036.07,1952.01,2137.08,2329.37,348.77,321.43,26.87,0000 0000 0000 0000 000000
2013-12-24 01:51:51,0.12,5.17,0.00,26.39,27.67,30.26,6.03,31.00,1024.44,2036.07,1951.81,2137.03,2329.14,351.10,323.24,26.87,0000 0000 0000 0000 000000
2013-12-24 01:52:51,0.19,5.17,0.00,26.42,27.67,30.28,5.87,30.58,1024.43,2036.07,1951.35,2137.01,2329.05,349.88,322.61,26.88,0000 0000 0000 0000 000000
2013-12-24 01:53:51,0.13,5.17,0.00,26.48,27.67,30.26,5.88,31.17,1024.44,2036.04,1951.13,2136.80,2328.99,350.16,322.82,26.88,0000 0000 0000 0000 000000
2013-12-24 01:54:52,0.15,5.17,0.00,26.45,27.67,30.25,5.89,30.92,1024.43,2036.04,1951.05,2136.44,2328.78,350.01,322.65,26.89,0000 0000 0000 0000 000000
2013-12-24 01:55:52,0.24,5.17,0.00,26.43,27.67,30.27,5.82,31.08,1024.43,2036.05,1950.76,2136.17,2328.34,349.19,322.19,26.90,0000 0000 0000 0000 000000
2013-12-24 01:56:52,0.29,5.17,0.00,26.40,27.67,30.35,5.98,30.75,1024.44,2036.05,1950.30,2136.06,2328.12,350.37,323.10,26.90,0000 0000 0000 0000 000000
2013-12-24 01:57:52,0.24,5.18,0.00,26.37,27.67,30.28,5.92,31.25,1024.44,2036.05,1950.11,2135.95,2328.04,350.26,323.02,26.91,0000 0000 0000 0000 000000
2013-12-24 01:58:52,0.13,5.18,0.00,26.39,27.67,30.27,5.78,31.29,1024.44,2036.02,1949.93,2135.75,2327.99,348.94,321.80,26.91,0000 0000 0000 0000 000000
2013-12-24 01:59:53,0.14,5.18,0.00,26.41,27.67,30.29,6.07,31.38,1024.43,2036.02,1949.48,2135.37,2327.72,350.20,322.92,26.92,0000 0000 0000 0000 000000
2013-12-24 02:00:53,0.35,5.18,0.00,26.40,27.67,30.32,5.92,30.88,1024.44,2036.01,1949.17,2135.14,2327.33,349.98,322.50,26.93,0000 0000 0000 0000 000000
2013-12-24 02:01:53,0.28,5.18,0.00,26.39,27.67,30.27,5.76,30.96,1024.46,2036.02,1949.06,2135.04,2327.12,349.13,321.98,26.93,0000 0000 0000 0000 000000
2013-12-24 02:02:53,0.13,5.18,0.00,26.37,27.67,30.30,6.03,31.21,1024.44,2036.03,1948.97,2134.99,2327.04,351.08,323.78,26.94,0000 0000 0000 0000 000000
2013-12-24 02:03:54,0.06,5.18,0.00,26.36,27.68,30.34,5.78,31.04,1024.46,2036.01,1948.55,2134.92,2326.97,349.20,322.07,26.94,0000 0000 0000 0000 000000
2013-12-24 02:04:54,0.18,5.18,0.00,26.34,27.67,30.33,5.95,31.13,1024.45,2036.02,1948.25,2134.55,2326.72,349.93,322.76,26.95,0000 0000 0000 0000 000000
2013-12-24 02:05:54,0.33,5.19,0.00,26.30,27.67,30.30,6.06,31.17,1024.49,2036.03,1948.10,2134.27,2326.36,350.73,323.55,26.95,0000 0000 0000 0000 000000
2013-12-24 02:06:54,0.23,5.19,0.00,26.36,27.67,30.28,5.96,30.83,1024.46,2036.03,1948.03,2134.10,2326.13,350.24,322.97,26.96,0000 0000 0000 0000 000000
2013-12-24 02:07:55,0.13,5.19,0.00,26.42,27.67,30.31,6.00,31.13,1024.46,2036.02,1948.00,2134.04,2326.05,349.80,322.56,26.97,0000 0000 0000 0000 000000
2013-12-24 02:08:55,0.04,5.19,0.00,26.43,27.67,30.28,5.83,30.79,1024.45,2036.00,1947.94,2134.01,2326.01,349.21,322.26,26.97,0000 0000 0000 0000 000000
2013-12-24 02:09:55,0.03,5.19,0.00,26.44,27.68,30.28,5.88,30.88,1024.47,2036.01,1947.66,2134.00,2325.91,349.80,322.43,26.98,0000 0000 0000 0000 000000
2013-12-24 02:10:55,0.14,5.19,0.00,26.46,27.68,30.25,5.98,30.83,1024.45,2036.05,1947.28,2133.75,2325.49,350.74,323.13,26.98,0000 0000 0000 0000 000000
2013-12-24 02:11:56,0.41,5.19,0.00,26.43,27.68,30.25,5.88,30.79,1024.44,2036.07,1947.10,2133.33,2325.19,349.10,322.16,26.99,0000 0000 0000 0000 000000
2013-12-24 02:12:56,0.31,5.19,0.00,26.44,27.67,30.28,5.74,30.83,1024.44,2036.08,1946.98,2133.13,2325.07,349.43,321.90,27.00,0000 0000 0000 0000 000000
2013-12-24 02:13:56,0.11,5.19,0.00,26.46,27.68,30.26,5.72,30.92,1024.44,2036.07,1946.49,2133.04,2325.01,349.72,322.32,27.00,0000 0000 0000 0000 000000
2013-12-24 02:14:56,0.21,5.19,0.00,26.46,27.68,30.24,5.83,31.00,1024.43,2036.06,1946.18,2133.01,2324.96,349.15,321.90,27.01,0000 0000 0000 0000 000000
2013-12-24 02:15:56,0.10,5.20,0.00,26.46,27.68,30.25,5.96,31.17,1024.44,2036.03,1946.04,2132.86,2324.63,350.11,323.41,27.01,0000 0000 0000 0000 000000
2013-12-24 02:16:57,0.17,5.20,0.00,26.41,27.68,30.25,6.02,31.00,1024.44,2036.02,1945.95,2132.46,2324.25,350.64,323.19,27.02,0000 0000 0000 0000 000000
2013-12-24 02:17:57,0.26,5.20,0.00,26.36,27.68,30.25,5.90,30.71,1024.43,2036.03,1945.48,2132.19,2324.09,350.00,323.14,27.02,0000 0000 0000 0000 000000
2013-12-24 02:18:57,0.33,5.20,0.00,26.25,27.68,30.25,5.90,31.04,1024.44,2036.01,1945.18,2132.07,2324.01,350.21,322.78,27.03,0000 0000 0000 0000 000000
2013-12-24 02:19:57,0.13,5.20,0.00,26.26,27.68,30.26,5.98,30.67,1024.44,2036.01,1945.06,2132.01,2323.95,350.64,323.48,27.04,0000 0000 0000 0000 000000
2013-12-24 02:20:57,0.08,5.20,0.00,26.32,27.68,30.28,5.77,30.96,1024.43,2036.01,1944.85,2131.95,2323.74,348.98,322.47,27.04,0000 0000 0000 0000 000000
2013-12-24 02:21:58,0.15,5.20,0.00,26.36,27.68,30.36,5.87,30.92,1024.43,2036.01,1944.36,2131.67,2323.36,350.18,322.97,27.05,0000 0000 0000 0000 000000
2013-12-24 02:22:58,0.40,5.20,0.00,26.38,27.68,30.35,5.98,31.13,1024.43,2036.02,1944.13,2131.28,2323.13,350.80,323.51,27.05,0000 0000 0000 0000 000000
2013-12-24 02:23:58,0.27,5.21,0.00,26.41,27.69,30.27,5.84,30.96,1024.43,2036.00,1944.02,2131.11,2323.05,349.84,322.60,27.06,0000 0000 0000 0000 000000
2013-12-24 02:24:58,0.10,5.21,0.00,26.41,27.69,30.23,5.73,30.75,1024.43,2036.01,1943.79,2131.04,2323.01,349.33,322.12,27.07,0000 0000 0000 0000 000000
2013-12-24 02:25:59,0.13,5.21,0.00,26.38,27.69,30.23,5.92,30.88,1024.43,2036.01,1943.36,2130.99,2322.83,349.60,322.40,27.07,0000 0000 0000 0000 000000
2013-12-24 02:26:59,0.20,5.21,0.00,26.40,27.68,30.23,5.95,31.13,1024.43,2036.01,1943.14,2130.78,2322.40,349.26,321.78,27.08,0000 0000 0000 0000 000000
2013-12-24 02:27:59,0.27,5.21,0.00,26.47,27.68,30.20,5.89,30.83,1024.43,2036.02,1943.05,2130.40,2322.16,351.15,323.74,27.08,0000 0000 0000 0000 000000
2013-12-24 02:28:59,0.24,5.21,0.00,26.56,27.68,30.18,5.88,30.79,1024.43,2036.05,1942.97,2130.19,2322.06,349.98,322.34,27.09,0000 0000 0000 0000 000000
2013-12-24 02:30:00,0.16,5.21,0.00,26.68,27.69,30.14,5.91,30.83,1024.43,2036.06,1942.60,2130.08,2322.01,349.19,321.60,27.09,0000 0000 0000 0000 000000
2013-12-24 02:31:00,0.22,5.21,0.00,26.78,27.69,30.18,5.85,30.67,1024.43,2036.05,1942.23,2130.02,2321.94,350.38,322.68,27.10,0000 0000 0000 0000 000000
2013-12-24 02:32:00,0.13,5.21,0.00,26.84,27.69,30.15,5.80,30.79,1024.43,2036.05,1942.09,2129.92,2321.53,350.35,322.83,27.11,0000 0000 0000 0000 000000
2013-12-24 02:33:00,0.16,5.22,0.00,26.86,27.69,30.13,5.79,30.75,1024.43,2036.05,1941.97,2129.63,2321.21,350.52,323.14,27.11,0000 0000 0000 0000 000000
2013-12-24 02:34:00,0.26,5.22,0.00,26.88,27.69,30.18,5.88,30.58,1024.43,2036.06,1941.68,2129.28,2321.08,349.88,322.29,27.12,0000 0000 0000 0000 000000
2013-12-24 02:35:01,0.27,5.22,0.00,26.88,27.69,30.17,5.83,30.67,1024.43,2036.05,1941.31,2129.10,2321.02,349.87,321.71,27.12,0000 0000 0000 0000 000000
2013-12-24 02:36:01,0.21,5.22,0.00,26.89,27.70,30.23,5.93,30.96,1024.43,2036.02,1941.11,2129.04,2320.86,349.60,321.86,27.13,0000 0000 0000 0000 000000